Volver al catálogo

STARLINK-4390

ActivoComunicacionesPO
NORAD 53653·PAYLOAD·🇺🇸 United States

Lanzado Aug 31, 2022 desde Vandenberg Space Force Base

Loading…

Próximos Pases (próximas 24 horas)

TLE

ActualizadoSource: CelesTrak SupGP

Época: Sep 14, 2026, 21:50 UTC

1 53653C 22105F   26257.91020833  .00810430  00000+0  13647-2 0  2575
2 53653  97.5866 148.4547 0002977 170.4013 339.0359 16.02351522    19

Sigue STARLINK-4390 en tiempo real con AllMySat

Download on the App Store